3CAT-5A (46292 NORAD) Tracking and Keplerian Element Data

This shows tracking and keplerian element data for the satellite.

Feedback or suggestion? Click here.




ElementValue
Catalog46292
Name3CAT-5A
Epoch Orbit1339
Epoch Day336.12785198
Epoch Year2020
RAAN47.5815
Inclination97.5104
Eccentricity0.0004046
Argument of Perigee32.8277
Mean Anonmoly327.3203
Mean Motion15.10272354
Decay Rate7.59E-06
L11 46292U 20061W 20336.12785198 .00000759 00000-0 50220-4 0 9991
L22 46292 97.5104 47.5815 0004046 32.8277 327.3203 15.10272354 13390

Live tracking and technical data element details for 3CAT-5A (NORAD 46292). 3CAT-5A can be tracked NOW for your location showing map with azimuth and elevation plus other details from your city location.

Track the satellite on the map from your city or location and see movement details for azimuth, elevation, latitude, longitude, range, height, and movement on the map or in text.







IsCatalogInMostPopularTable: catalog: 46292, numindb: 20
Update: records affected: 1



GetName: 46292 3CAT-5A

Hit Count: updated at: Tue, 01 Dec 2020 20:56:52 GMT